一网星座-0553星 (ONEWEB-0553)

导读 | 星芒AI

ONEWE-0553 是 OneWeb 卫星通信网络中的第 553 颗卫星,属于其低轨卫星星座的一部分,旨在为全球提供高速互联网服务。该卫星由空中客车公司制造,采用标准化设计以降低发射和运营成本。它运行在约 1200 公里的近地轨道,支持极地覆盖,特别服务于偏远和网络基础设施薄弱的地区。ONEWE-0553 的部署有助于增强 OneWeb 的全球网络能力,提升连接性和通信可靠性。

基本信息
目录编号:
56055
目录名称:
ONEWEB-0553
国际标识:
2023-043K
轨道中心:
EARTH
卫星名称:
一网星座-0553星
卫星全名:
一网星座-0553星 (ONEWEB-0553)
卫星状态:
在轨 (已飞行996 天)
发射日期:
2023-03-26 UTC
国别 :
英国 (GB)
星等 :
--
轨道信息
数据来源 国际轨道数据 AOE轨道数据
星历时间 2025-12-15T14:27:46+0800
20小时前
查看轨道信息
2025-12-14T12:00:00+0800
1天前
查看轨道信息
半长轴 7575.888km 7575.887km
偏心率 0.0001451 0.0001432
轨道倾角 87.905° 87.905°
近地点辐角 84.027° 86.946°
升交点赤经 265.396° 265.616°
平近点角 276.103° 90.071°
近地点 1196.653km 1196.667km
远地点 1198.853km 1198.837km
周期 109.373分钟 109.373分钟
每日圈数 13.165958 13.165962
详细信息
平衡模式:
三轴稳定
覆盖范围:
全球
运营商:
一网卫星公司
运营商所在国:
英国
制造商(研发单位):
一网卫星公司
制造商所在国:
英国
使用方式:
暂无
卫星简介
OneWeb卫星网络由648颗重约125公斤的微型卫星组成,运行在1200公里的轨道上。 每颗卫星都能够提供至少每秒8千兆位的吞吐量,以使用其高吞吐量的Ku频段有效载荷为家庭和移动平台提供互联网接入。该卫星仍在工作。
2D轨道图
3D轨道图
轨道高度分析图
轨道倾角分析图
轨道综合分析图
查看轨道综合分析图